Regional Weather Roundup
Issued by NWS

Home | Current Version | Previous Version | Graphics & Text | Print | Product List | Glossary On
Versions: 1 2 3 4 5 6 7 8 9 10 11 12 13 14 15 16 17 18 19 20 21 22 23 24 25 26 27 28
000
ASUS45 KSLC 270110
RWRUT

UTAH REGIONAL WEATHER ROUNDUP
NATIONAL WEATHER SERVICE SALT LAKE CITY UT
700 PM MDT THU MAY 26 2016

UTZ001>011-023>025-270200-

NORTHERN UTAH

CITY           SKY/WX    TMP DP  RH WIND       PRES   REMARKS
BRIGHAM CITY     N/A     68  32  26 N6        29.93S
HILL AFB       PTSUNNY   64  40  41 NW13      29.95R THUNDER
LOGAN          MOSUNNY   67  40  37 N5        29.92F
OGDEN          MOSUNNY   62  41  46 W10       29.93R
PROVO AIRPORT  PTSUNNY   64  37  36 NW15      29.94R
SALT LAKE CITY MOSUNNY   69  36  29 W13       29.92S
VERNAL         CLOUDY    63  28  26 SE5       29.88F
WENDOVER       CLOUDY    68  36  30 N13       29.95S
HEBER CITY     LGT RAIN  52  39  62 W6        30.00S
WEST JORDAN    SUNNY     66  28  24 W7        29.95F

$$

UTZ012>022-026-027-270200-

SOUTHERN/CENTRAL UTAH

CITY           SKY/WX    TMP DP  RH WIND       PRES   REMARKS
BLANDING       CLOUDY    54  34  46 N22G28    30.02R
BRYCE CANYON   PTSUNNY   47  33  58 W13       30.08R
CEDAR CITY     CLOUDY    56  35  45 S8        30.00S
DELTA          PTSUNNY   63  32  31 CALM      29.94S
HANKSVILLE     PTSUNNY   64  32  29 W15       29.92S
MILFORD        LGT RAIN  61  40  45 S15       29.96R
MOAB/CYNLANDS  CLOUDY    66  34  30 NW16      29.84R
PRICE          PTSUNNY   55  30  38 NW14      29.96F
ST GEORGE      CLOUDY    73  37  27 N12       29.92S
KANAB          MOSUNNY   64  34  32 NW6       30.01F

$$

REGIONAL REPORTS     COLORADO/ARIZONA

CITY           SKY/WX    TMP DP  RH WIND       PRES   REMARKS
CRAIG, CO      CLOUDY    55  35  47 W21G31    29.92R
GRAND JUNCTION CLOUDY    65  28  24 N15       29.84R
RIFLE          CLOUDY    62  30  29 SW7       29.86F
MONTROSE       SUNNY     63  29  27 SE14      29.89S
CORTEZ         MOSUNNY   56  32  40 SW9       29.93S
PAGE, AZ       MOSUNNY   71  31  22 NW9       29.90S
GRAND CANYON   PTSUNNY   58  28  32 NW8G17    30.05F
KINGMAN        MOSUNNY   77  23  13 MISG      29.91F
FLAGSTAFF      PTSUNNY   56  28  34 SW6       30.05F

$$

REGIONAL REPORTS    NEVADA/IDAHO/WYOMING

CITY           SKY/WX    TMP DP  RH WIND       PRES   REMARKS
LAS VEGAS, NV  MOSUNNY   82  32  16 VRB5      29.80F
ELY            PTSUNNY   59  35  40 N15       30.03F
ELKO           PTSUNNY   59  40  49 NE7       30.02S
POCATELLO, ID  MOSUNNY   67  39  35 W13       29.93F
BURLEY         MOSUNNY   68  34  28 W9        29.92F
EVANSTON, WY   CLOUDY    51  36  56 SW16G23   30.02S
ROCK SPRINGS   CLOUDY    57  26  30 W15       29.94R
KEMMERER         N/A     55  34  44 W21       30.00S

$$




USA.gov is the U.S. government's official web portal to all federal, state and local government web resources and services.